Hlavní strana
METAR-TAF:

METAR-TAF

Letiště :

Blackstone, Virginie, Spojené státy americké

zeměpisná šířka: 37-04-26N, zeměpisná délka: 077-57-09W, výška: 134 m

Aktuální stav počasí

Zpráva byla vytvořena před 16 minutami, v 12:35 UTC
Západní vítr 4 kt
Teplota 25°C
Vlhkost vzduchu 89%
Tlak 1009 hPa
Viditelnost: 16.1 km
Jasno

METAR: KBKT 211235Z AUTO 26004KT 10SM CLR 25/23 A2980 RMK AO1 T02540232

Čas: 08:51 (12:51 UTC)


TAF: chybějící

Stav a předpovědi počasí z více než 4 000 letišť (zprávy METAR a TAF).

Červené a žluté tečky na mapě představují dostupné meteorologické stanice.

Když kurzor umístíte na tečku, zobrazí se název stanice.

Pak kliknutím zobrazíte stav a předpověď počasí.

Chcete-li změnit mapu, kliknutím na zelené tlačítko se znaménkem +mapu přiblížíte, kliknutím na zelené tlačítko se znaménkem – mapu oddálíte a kliknutím na zelené šipky přejdete na sousední mapy.


METAR-TAF: